Regional Weather Roundup
Issued by NWS

Home | Current Version | Previous Version | Text Only | Print | Product List | Glossary On
Versions: 1 2 3 4 5 6 7 8 9 10 11 12 13 14 15 16 17 18 19 20 21 22 23 24 25 26 27 28 29 30 31 32 33 34 35 36 37 38 39 40 41 42 43 44 45 46 47 48 49 50
000
ASUS43 KMKX 290921
RWRWI

WISCONSIN REGIONAL WEATHER ROUNDUP
NATIONAL WEATHER SERVICE MILWAUKEE/SULLIVAN WI
400 AM CDT SAT APR 29 2017

NOTE: "FAIR" INDICATES FEW OR NO CLOUDS BELOW 12,000 FEET WITH NO
SIGNIFICANT WEATHER AND/OR OBSTRUCTIONS TO VISIBILITY.

WIZ001-002-006>008-014>016-023>028-291000-
NORTHWEST WISCONSIN

CITY           SKY/WX    TMP DP  RH WIND       PRES   REMARKS
SUPERIOR ARPT  CLEAR     27  26  96 CALM      30.26R
ASHLAND        CLEAR     27  24  89 W5        30.24R WCI  22
HAYWARD        CLOUDY    26  23  88 CALM      30.21R
SIREN          CLOUDY    28  27  93 CALM      30.22F
CUMBERLAND     PTCLDY    32  27  80 NE6       30.18F WCI  26
RICE LAKE      PTCLDY    33  29  85 CALM      30.21S
CHETEK         NOT AVBL
LADYSMITH      PTCLDY    31  27  83 N5        30.20R WCI  27
EAU CLAIRE     CLOUDY    35  26  69 N8        30.17R WCI  29
MENOMONIE      CLOUDY    36  28  73 N7        30.19F WCI  30
NEW RICHMOND   PTCLDY    35  28  75 NE5       30.20F WCI  30
OSCEOLA        CLOUDY    36  28  73 NE5       30.23F WCI  32
$$

WIZ003>005-009-010-017-018-291000-
NORTH CENTRAL WISCONSIN

CITY           SKY/WX    TMP DP  RH WIND       PRES   REMARKS
MANITOWISH WTR CLEAR     28  26  94 N5        30.18R WCI  23
ARBOR VITAE    CLOUDY    29  27  90 N5        30.17R WCI  24
WOODRUFF       CLOUDY    29  27  90 N5        30.17R WCI  24
RHINELANDER    PTCLDY    31  27  85 N6        30.16R WCI  25
EAGLE RIVER    CLEAR     28  24  82 N7        30.15R WCI  21
LAND O LAKES   CLEAR     30  25  81 N6        30.17S WCI  24
PHILLIPS       CLOUDY    29  27  90 N3        30.18R
TOMAHAWK       PTCLDY    29  25  86 NW5       30.17R WCI  24
MEDFORD        PTCLDY    31  26  80 N8        30.13F WCI  24
MERRILL        CLOUDY    29  27  91 N5        30.17R WCI  24
$$

WIZ029-030-035-036-043>047-291000-
CENTRAL WISCONSIN

CITY           SKY/WX    TMP DP  RH WIND       PRES   REMARKS
WAUSAU         CLOUDY    32  26  78 N8        30.13S WCI  25
MOSINEE        CLOUDY    32  28  86 N9        30.15R WCI  24
MARSHFIELD     CLOUDY    34  26  72 NE12      30.14R WCI  25
STEVENS POINT  CLOUDY    32  25  76 NE7       30.17R WCI  25
WAUPACA        PTCLDY    38  26  61 NE9G17    30.16R WCI  32
WAUTOMA        CLEAR     40  30  67 NE7G16    30.15
WISC RAPIDS    PTCLDY    37  27  67 NE13G21   30.17R WCI  29
CAMP DOUGLAS   PTCLDY    38  31  76 N9        30.12R WCI  31
$$

WIZ011>013-019>022-031-037>040-048>050-291000-
NORTHEAST WISCONSIN

CITY           SKY/WX    TMP DP  RH WIND       PRES   REMARKS
ANTIGO         CLEAR     30  26  86 N9        30.13R WCI  22
SHAWANO        CLEAR     37  29  74 N9        30.14S WCI  30
OCONTO         CLEAR     34  28  78 CALM      30.13R
STURGEON BAY   CLEAR     36  25  64 NE14      30.12S WCI  27
GREEN BAY      PTCLDY    37  28  70 N15       30.13R WCI  28
MANITOWOC      PTCLDY    40  30  67 N8        30.14R WCI  34
APPLETON       PTCLDY    36  27  69 N14G21    30.13R WCI  27
CLINTONVILLE   PTCLDY    34  27  75 NE6       30.14R WCI  29
OSHKOSH        CLEAR     40  30  67 N10       30.13R WCI  33
$$

WIZ032>034-041-042-053>061-291000-
SOUTHWEST WISCONSIN

CITY           SKY/WX    TMP DP  RH WIND       PRES   REMARKS
LA CROSSE      PTCLDY    38  32  79 N5        30.14R WCI  34
SPARTA         CLOUDY    36  32  85 N9        30.14R WCI  29
VIROQUA        PTCLDY    38  32  78 NE9       30.09R WCI  32
BOSCOBEL       CLOUDY    41  35  79 VRB5      30.16R
PRAIRIE DU CHI CLOUDY    42  32  68 SE3       30.17R
PLATTEVILLE    CLOUDY    44  39  84 NE10      30.12R
$$

WIZ056-057-062-063-064-067-068-291000-
SOUTH CENTRAL WISCONSIN

CITY           SKY/WX    TMP DP  RH WIND       PRES   REMARKS
REEDSBURG      CLOUDY    40  32  74 CALM      30.11R
BARABOO/DELLS  CLOUDY    38  31  77 E5        30.14R WCI  35
LONE ROCK      MOCLDY    42  34  73 E8        30.13R
MINERAL POINT  CLOUDY    45  37  76 NE8       30.12R
MADISON        CLOUDY    44  33  65 NE12      30.12R
MIDDLETON      CLOUDY    45  37  73 NE8       30.13R
WATERTOWN      CLOUDY    43  37  78 E8        30.12R
MONROE         CLOUDY    43  37  81 N16G23    30.07S
JANESVILLE     CLOUDY    46  43  87 NE8       30.07F
$$

WIZ051-052-058>065-066-070>072-291000-
SOUTHEAST WISCONSIN

CITY           SKY/WX    TMP DP  RH WIND       PRES   REMARKS
MILWAUKEE      CLOUDY    43  36  76 NE14G24   30.10R
WAUKESHA       CLOUDY    41  32  70 NE13G20   30.13F
MILWAUKEE/TIMM CLOUDY    41  32  70 NE14G22   30.14F
RACINE         CLOUDY    42  35  76 NE17G26   30.11F
KENOSHA        CLOUDY    43  35  73 NE16G24   30.08F
FOND DU LAC    CLEAR     43  28  55 NE14      30.14R
SHEBOYGAN      CLOUDY    42  35  76 NE8       30.15R
WEST BEND      CLOUDY    41  36  81 E8        30.14R
JUNEAU         CLOUDY    42  32  68 NE7       30.15R
$$

LSZ147-162-291000-
LAKE SUPERIOR

STATION/POSITION TIME  TEMP    WIND        PRES    WAVE
                       AIR SEA DIR/SP/G            HT/PER
                 (UTC) (F)     (DEG/KT/KT) (MB)    (FT/S)
DEVILS ISLAND    0900   36     230/  6/  6 1025.0R
PORT WING        0830   29     170/  4/  4 1024.0R
SAXON HARBOR     0840   28     200/  4/  4 1023.4R
$$

LMZ867-665-643>646-291000-
LAKE MICHIGAN

STATION/POSITION TIME  TEMP    WIND        PRES    WAVE
                       AIR SEA DIR/SP/G            HT/PER
                 (UTC) (F)     (DEG/KT/KT) (MB)    (FT/S)
CHAMBERS ISLAND  0840   37     340/ 12/ 15 1020.0S
N MID LAKE BUOY  0850   37 37  350/ 12/ 16 1021.9R   2/ 4
NORTHPORT PIER   0840   37     340/ 15/ 18 1020.7R
KEWAUNEE LAKESHO 0900   37     360/  8/ 14 1019.7
SHEBOYGAN LAKESH 0900   41      60/ 11/ 13 1021.3R
PORT WASHINGTON  0900   42      40/ 10/ 18 1021.7
MILWAUKEE LAKESH 0900   42      30/ 17/ 20   N/A
S MID LAKE BUOY  0850   42 41   20/ 16/ 19 1018.6F   2/ 4
KENOSHA   LAKESH 0900   43      20/ 19/ 24 1018.6
$$

TC  - TEMPERATURE IN CELSIUS
VSB - VISIBILITY IN STATUTE MILES
WCI - WIND CHILL INDEX
HX  - HEAT INDEX





USA.gov is the U.S. government's official web portal to all federal, state and local government web resources and services.